ARIANE 44P R/B

Satellite information

Favourite Embed

Satellite Type and Status

ROCKET BODYIN ORBIT

Key statistics

Satellite ARIANE 44P R/B at a glance.

Uptime

10298

Days in orbit

Revolutions

≈ 3.7

Per day

Orbit

MEO

Medium Earth Orbit

Inclination

7.4

Latest

Satellite identification and parameters

Extended collection of information and parameters for ARIANE 44P R/B.

Object identification

Identified? True

Debris? False

Object name: ARIANE 44P R/B

International designator: 1997-040B

Object number (NORAD): 24892

Object ID (CCSDS): 24892

Country: FRANCE (FR)

Current information (Y/N): Y

RCS size: LARGE

Orbital parameters

Period: 385.381 minutes

Inclination: 7.4366 deg

SMA: 17542.317 km

Apoapsis: 22017.789 km

Periapsis: 310.574 km

RAAN: 197.8921 deg

Eccentricy: 0.61871005

Argument of periapsis: 74.9555 deg

Mean anomaly: 342.3195 deg

Mean motion: 3.7365633 rev/day

Mean motion (dot): 0.00007849 rev/day2

B* drag term: 0.0027963583 1/REarth

Two-line elements (TLE)

Creation date: Oct. 18, 2025, 2:17 a.m.

Reference frame: TEME

Reference center: EARTH

Epoch: Oct. 17, 2025, 7:34 p.m. UTC

TLE line 0: 0 ARIANE 44P R/B

TLE line 1: 1 24892U 97040B 25290.81541169 .00007849 00000-0 27964-2 0 9996

TLE line 2: 2 24892 7.4366 197.8921 6187101 74.9555 342.3195 3.73656330317003

Live tracking on map

Real-time ground track for satellite ARIANE 44P R/B.

In-orbit conjunctions

There are no conjunctions computed for ARIANE 44P R/B, at the moment. Check back to stay up to date, as we update our databases every day.

Go to all conjunctions

Associated space launch

Three of the most powerful broadcast satellites ever launched that are capable of direct-to-home (DTH) service are providing DTH programming to millions of consumers of PanAmSat. They were designed and built by Space Systems/Loral (SS/L). PanAmSat-6 (PAS-6) provides quality digital television to customers in South America.

ARIANE 44P R/B was lifted into orbit during the mission ‘Ariane 44P | PAS 6’, on board a Ariane 44P space rocket.

The launch took place on Aug. 8, 1997, 6:46 a.m. from Ariane Launch Area 2.

For more information about the launch, click the button.

Launch to space Ariane 44P | PAS 6
Ariane 44P | PAS 6

Agency: N/A

Status: Launch Successful

Launch date: Aug. 8, 1997, 6:46 a.m. UTC

Rocket: Ariane 44P

Launch pad: Ariane Launch Area 2

Location: Guiana Space Centre, French Guiana

...

Latest news about this satellite

There are no fresh news available about this satellite. Check back as we update our databases every day.


Newsletter sign-up

Weekly statistics, charts and insights to help you stay on top of the space industry.